Starlink 32602

operational
NORAD ID: 62181 Int'l Des: 2024-225 Owner: SPXS Country: US Constellation: starlink
LEOCIRCULAR

Über Starlink 32602

Beschreibung wird geladen...

Live-Position

3D-Globus wird geladen...

Nächste Überflüge

Höhenverlauf

Altitude vs Time

uPlot chart will show altitude changes over time

Zweizeiliger Elementsatz

1 62181U 24225U 25340.55297677 .00010474 00000-0 88400-3 0 9994
2 62181 70.0021 29.3015 0003598 270.6914 89.3833 14.98342685 56177
Epoch: 6. Dez. 2025 • Age: 21 hours

Aktueller Status

Höhe 580.3 km
Geschwindigkeit 7.57 km/s
Subsatellitenpunkt 45.89°N, 51.53°W
Startdatum 30. Nov. 2024
Alter 1 years
Typ internet

Technische Details

Klassifizierung Payload
Masse 730.00 kg
Trockenmasse 700.00 kg
Gesamtmasse 730.00 kg
Länge 0.30 m
Durchmesser 4.10 m
Spannweite 29.00 m
Form Box + pan
Hersteller SPXS
Bus-Typ Starlink V2M
Phasenstatus In Orbit
Besitzer/Staat SPXS/US

Große Konstellationen

Loading constellations...